STARLINK-4211, 52873

Orbit data source: Space-Track

STARLINK-4211, 52873 is a payload satellite owned by SpaceX/Seattle (US) in LEO that was launched on Fri, 17 Jun 2022 UTC via an FALCON 9 launch vehicle from the Air Force Eastern Test Range (AFETR). Payload-class satellites include a variety of spacecraft equipped with specific instruments for various scientific and technological missions. These include communications satellites like Starlink; space stations such as the ISS; scientific satellites like the Hubble; Earth observation satellites from companies like Planet Labs, Umbra, and HawkEye 360; GPS; miniature CubeSats for education and research; and military/defense satellites.

Loading next visibility...
Identifier
52873, 2022-062AV
Orbit
LEO
Country
Flag of USUS
Related business
Manufacturer
SpaceX/Seattle
Mission
Operational Commercial Communications
Bus & Motor
STARLINK, Unknown motor
Mass
297 kg wet, ~275 kg dry
Launch date (UTC)
2022-06-17 (3 years ago)
Launch vehicle
FALCON 9
Launch site
Air Force Eastern Test Range (AFETR)
Object type
Payload
Rocket body
Debris
Shape & HBR
Box + 1 Pan, 10.1 m
Radar Cross Section
13.562 m², Large (>1 m²)

Expand to show TLE details & history
Last TLE update: 17 hours ago

TLE from 17 hours ago
0 STARLINK-4211
1 52873U 22062AV  25349.36577824 -.00000480  00000-0 -12087-4 0  9998
2 52873  53.2178  32.6644 0001002  78.9759 281.1346 15.08841538193333
Epoch: 2025-12-15T08:46Z
TLE epoch observation values (Epoch: 2025-12-15T08:46:43.239Z)
Latitude
-0.00003°
Longitude
176.71883°
Altitude
540.502 km
Speed
7.593 km/s
True Right ascension
02h 10m 39s
True Declination
0° 00' 00"
Sunlit
Object was in full shadow at epoch
Visualization orbit readout
Latitude
Unknown
Longitude
Unknown
Altitude
Unknown
Speed
Unknown
Apparent Right ascension
Unknown
Apparent Declination
Unknown
Sunlit
N/A
Visualization observer readout
Local Sidereal Time
00:25:04
Azimuth
Unknown
Elevation
Unknown
Doppler factor
Unknown
Orbital elements
Apogee altitude
540.677 km
Perigee altitude
539.29 km
Semi-major axis
6,918.121 km
Eccentricity
0.0001
Inclination
53.2178°
RAAN
32.6644°
Arg. of periapsis
78.9759°
True anomaly
281.12333°
Mean anomaly
281.1346°
Eccentric anomaly
281.12897°
Mean motion
3.77191 °/min
Orbital period
95.44 mins
BSTAR
-0.000012087
Loading maneuver chart data...
Computing Atmospheric mass density...
Loading historical data...
Loading historical data...
Loading historical data...
Loading historical data...
Loading historical data...
Loading historical data...
Loading historical data...

Documentation

Showing up to 5 results
|